ECHOSTAR 19 (41893 NORAD) Tracking and Keplerian Element Data

This shows tracking and keplerian element data for the satellite.

Feedback or suggestion? Click here.




ElementValue
Catalog41893
NameECHOSTAR 19
Epoch Orbit694
Epoch Day318.12201747
Epoch Year2018
RAAN287.0341
Inclination0.0065
Eccentricity0.0001436
Argument of Perigee293.2678
Mean Anonmoly139.6874
Mean Motion1.0027096
Decay Rate-1.38E-06
L11 41893U 16079A 18318.12201747 -.00000138 00000-0 00000+0 0 9995
L22 41893 0.0065 287.0341 0001436 293.2678 139.6874 1.00270960 6946

Live tracking and technical data element details for ECHOSTAR 19 (NORAD 41893). ECHOSTAR 19 can be tracked NOW for your location showing map with azimuth and elevation plus other details from your city location.

Track the satellite on the map from your city or location and see movement details for azimuth, elevation, latitude, longitude, range, height, and movement on the map or in text.







IsCatalogInMostPopularTable: catalog: 41893, numindb: 151
Update: records affected: 1



GetName: 41893 ECHOSTAR 19

Hit Count: updated at: Fri, 16 Nov 2018 03:05:32 GMT